Regional Weather Roundup
Issued by NWS San Angelo, TX

Home | Current Version | Previous Version | Text Only | Print | Product List | Glossary On
Versions: 1 2 3 4 5 6 7 8 9 10 11 12 13 14 15 16 17 18 19 20 21 22 23 24 25 26 27 28 29 30 31 32 33 34 35 36 37 38 39 40 41 42 43 44 45 46 47 48 49 50
000
ASUS44 KSJT 161310
RWRSJT
WEST CENTRAL TEXAS REGIONAL WEATHER ROUNDUP
NATIONAL WEATHER SERVICE SAN ANGELO TX
800 AM CDT WED AUG 16 2017

NOTE: "FAIR" INDICATES FEW OR NO CLOUDS BELOW 12,000 FEET WITH NO
SIGNIFICANT WEATHER AND/OR OBSTRUCTIONS TO VISIBILITY.

TXZ049-054-064>066-071>073-076>078-098-099-113-114-127-128-139-140-
154-155-168>170-161400
...LOCATIONS ACROSS WEST CENTRAL TEXAS...

CITY           SKY/WX    TMP DP  RH WIND       PRES   REMARKS
SAN ANGELO     PTCLDY    73  70  90 CALM      29.92S
ABILENE        PTSUNNY   75  71  87 S10       29.92R
DYESS AFB      PTSUNNY   76  71  84 S13       29.90R
JUNCTION       CLOUDY    77  73  87 SE3       29.95R
SWEETWATER     MOSUNNY   73  71  91 SE13      29.95R
BROWNWOOD      CLOUDY    77  72  83 SE9       29.94R
COLEMAN        CLOUDY    75  70  86 S8        29.94R
SONORA         CLOUDY    73  73 100 CALM      29.99R
OZONA          FAIR      72  70  94 S8        29.98R
BRADY          NOT AVBL
$$

TEXAS PANHANDLE/OKLAHOMA PANHANDLE

CITY           SKY/WX    TMP DP  RH WIND       PRES   REMARKS
AMARILLO       CLEAR     68  66  93 W7        29.94R
BORGER         CLEAR     71  68  90 SW8       29.91R
CANADIAN       SUNNY     72  71  96 SW6       29.86R
DALHART        CLEAR     62  57  83 N14       30.01R
DUMAS          SUNNY     61  58  88 NW12      29.96R
GUYMON         NOT AVBL
HEREFORD       SUNNY     66  64  93 W5        29.99R
PAMPA          SUNNY     72  69  92 SW9       29.92R FOG
PERRYTON       PTSUNNY   69  67  94 CALM      29.89R
$$

SOUTHERN PANHANDLE/SOUTH PLAINS/ROLLING PLAINS

CITY           SKY/WX    TMP DP  RH WIND       PRES   REMARKS
LUBBOCK        MOCLDY    70  66  87 SW8       29.94S
SNYDER         PTCLDY    69  68  96 S8        29.93S
CHILDRESS      SUNNY     73  71  93 S8        29.88R
SEMINOLE       SUNNY     65  65  99 CALM      29.97R
$$

PERMIAN BASIN

CITY           SKY/WX    TMP DP  RH WIND       PRES   REMARKS
MIDLAND        CLEAR     72  67  84 S9        29.94R
ODESSA         CLEAR     71  67  87 S7        29.95R
WINK           CLEAR     70  66  87 CALM      29.92R
$$

FAR WEST/SOUTHWEST MOUNTAINS/TRANS PECOS

CITY           SKY/WX    TMP DP  RH WIND       PRES   REMARKS
ALPINE         MOSUNNY   73  62  68 SW8       30.13R
DRYDEN           N/A     74  72  93 CALM      29.93R
EL PASO        PTCLDY    79  53  40 NW13G20   30.03R
FORT STOCKTON  CLEAR     71  64  78 SW5       29.95R
GUADALUPE PASS CLEAR     64  57  78 S13       30.13R
MARFA          CLOUDY    64  63  96 CALM      30.12R
PECOS          SUNNY     69  67  94 CALM      29.93R
$$

DALLAS/FORT WORTH METROPLEX

CITY           SKY/WX    TMP DP  RH WIND       PRES   REMARKS
DFW AIRPORT    CLOUDY    82  74  76 S15       29.90R
FTW MEACHAM    CLOUDY    80  75  84 S13G22    29.90R
DAL-EXECUTIVE  MOSUNNY   79  74  84 S7        29.92R
GRAND PRAIRIE  SUNNY     79  72  78 S9G16     29.93R
ADDISON        PTSUNNY   81  72  74 S9G28     29.91S
MESQUITE       CLOUDY    79  73  83 SE8       29.94R
LANCASTER      PTSUNNY   78  73  86 S6        29.94R
$$

NORTH CENTRAL TEXAS

CITY           SKY/WX    TMP DP  RH WIND       PRES   REMARKS
SHRMAN/DENISON CLOUDY   N/A N/A N/A S13G20    29.91R
GAINESVILLE    CLOUDY    78  71  79 SE10G16   29.91R
BRIDGEPORT     CLOUDY    80  70  73 S14G24    29.90R
DENTON         CLOUDY    79  74  84 S13       29.90R
WAXAHACHIE     PTSUNNY   77  74  89 S7        29.95R
GRANBURY       PTSUNNY   81  72  74 S9        29.93R
$$

WESTERN NORTH TEXAS

CITY           SKY/WX    TMP DP  RH WIND       PRES   REMARKS
WICHITA FALLS  CLOUDY    79  71  76 S8        29.87R
VERNON         MOSUNNY   75  71  85 S9        29.88R
BRECKENRIDGE   NOT AVBL
COMANCHE       CLOUDY    79  71  78 S10       29.94R
$$

CENTRAL AND SOUTH CENTRAL TEXAS

CITY           SKY/WX    TMP DP  RH WIND       PRES   REMARKS
AUSTIN/BERGSTM PTSUNNY   81  76  84 S9        29.95R
WACO           PTSUNNY   80  75  84 S12       29.94R
HILLSBORO      PTSUNNY   79  75  87 S9        29.95R
TEMPLE         PTSUNNY   81  75  83 S15       29.95S
KILLEEN-GRAY   MOSUNNY   79  73  83 S8        29.95R
FORT HOOD      MOSUNNY   78  72  82 S9        29.92R
GEORGETOWN     PTSUNNY   81  73  76 S13       29.97R
LAGO VISTA     CLOUDY    79  74  83 S8G18     29.98R
SAN MARCOS     MOSUNNY  N/A N/A N/A S10         N/A
NEW BRAUNFELS  CLOUDY    80  76  87 S7        29.94R
RANDOLPH AFB   PTSUNNY   80  77  92 S10       29.95R
SAN ANTONIO    PTSUNNY   80  72  76 S10       29.95R
STINSON        CLOUDY    81  74  79 S6        29.92R
PLEASANTON     NOT AVBL
LA GRANGE      CLOUDY    80  79  96 S3        29.94R
GIDDINGS       SUNNY     76  75  95 S5        29.96S
$$

EAST TEXAS

CITY           SKY/WX    TMP DP  RH WIND       PRES   REMARKS
PARIS          PTSUNNY   79  74  84 S14       29.95R
CLARKSVILLE    NOT AVBL
TYLER          CLOUDY    80  77  90 S10       29.96R
LONGVIEW       PTSUNNY   79  78  97 S7        29.97R
PALESTINE      CLOUDY    78  77  98 S6        29.98R
NACOGDOCHES    NOT AVBL
$$

TEXAS HILL COUNTRY AND EDWARDS PLATEAU

CITY           SKY/WX    TMP DP  RH WIND       PRES   REMARKS
LLANO          CLOUDY    81  72  74 S6        29.97S
HORSESHOE BAY  CLOUDY    79  72  79 S3        29.96R
KERRVILLE      CLOUDY    76  74  91 S9        29.97R
FREDERICKSBRG  CLOUDY    77  69  75 S8        29.97S
ROCKSPRINGS    NOT AVBL
HONDO          CLOUDY    81  74  79 SE10      29.93R
UVALDE         CLOUDY    79  73  80 SE7       29.93R
DEL RIO        CLOUDY    78  74  87 SE6       29.89R
$$

SOUTHEAST TEXAS

CITY           SKY/WX    TMP DP  RH WIND       PRES   REMARKS
COLLEGE STN    SUNNY     80  78  94 SE7       29.96R
CALDWELL       NOT AVBL
CROCKETT       MOSUNNY   79  77  94 CALM      30.00R
BRENHAM        SUNNY     80  79  96 SE3       29.96S
HUNTSVILLE     SUNNY     82  76  81 VRB6      29.96S
CONROE         SUNNY     79  77  94 SE3       29.97S
HOUSTON BUSH   MOSUNNY   84  78  82 S7        29.96F
HOUSTON HOBBY  MOSUNNY   85  77  77 S6        29.97R
PERLAND        SUNNY     85  77  77 S5        29.98R
WHARTON        SUNNY     80  76  86 SE8       29.96R
$$

THE UPPER TEXAS COAST

CITY           SKY/WX    TMP DP  RH WIND       PRES   REMARKS
ORANGE         MOSUNNY   83  80  90 S5        30.00S
PORT ARTHUR    LGT RAIN  82  79  90 S5        29.98R
GALVESTON      PTSUNNY   86  78  77 S17G23    29.98R
ANGLETON       SUNNY     83  79  88 S7        29.97R
BAY CITY       MOSUNNY   82  78  88 S5        29.96R
$$

TEXAS COASTAL BEND, RIO GRANDE PLAINS DEEP SOUTH TEXAS

CITY           SKY/WX    TMP DP  RH WIND       PRES   REMARKS
VICTORIA       MOSUNNY   83  77  82 S12       29.94R
BEEVILLE       PTSUNNY   81  81 100 S8        29.93R
ROCKPORT       SUNNY     84  77  79 S10       29.93R
PORT ARANSAS   PTSUNNY   83  78  83 S9        29.93R
PORT LAVACA    SUNNY     82  76  82 S5        29.94R
CORPUS CHRISTI MOSUNNY   81  78  91 S12       29.91S
KINGSVILLE NAS PTSUNNY   82  79  90 SE9       29.91R
COTULLA        MOSUNNY   80  73  79 SE7       29.91R
LAREDO         SUNNY     81  74  79 SE13      29.90R
BROWNSVILLE    MOSUNNY   81  79  94 S13       29.91R
PORT ISABEL    LGT RAIN  82  79  90 S12       29.90R
HEBBRONVILLE   SUNNY     76  73  90 S5        29.92R FOG
MCALLEN        SUNNY     82  76  81 SE10      29.90R
WESLACO        CLOUDY    81  76  85 S6        29.89R
FALFURRIAS     SUNNY     80  77  90 SE7       29.90R
EDINBURG       SUNNY     82  77  86 CALM      29.90R
$$




USA.gov is the U.S. government's official web portal to all federal, state and local government web resources and services.